Regional Weather Roundup
Issued by NWS San Angelo, TX

Home | Current Version | Previous Version | Graphics & Text | Print | Product List | Glossary Off
Versions: 1 2 3 4 5 6 7 8 9 10 11 12 13 14 15 16 17 18 19 20 21 22 23 24 25 26 27 28 29 30 31 32 33 34 35 36 37 38 39 40 41 42 43 44 45 46 47 48 49 50

000
ASUS44 KSJT 311310
RWRSJT
WEST CENTRAL TEXAS REGIONAL WEATHER ROUNDUP
NATIONAL WEATHER SERVICE SAN ANGELO TX
800 AM CDT FRI OCT 31 2014

NOTE: "FAIR" INDICATES FEW OR NO CLOUDS BELOW 12,000 FEET WITH NO
SIGNIFICANT WEATHER AND/OR OBSTRUCTIONS TO VISIBILITY.

TXZ049-054-064>066-071>073-076>078-098-099-113-114-127-128-139-140-
154-155-168>170-311400
...LOCATIONS ACROSS WEST CENTRAL TEXAS...

CITY           SKY/WX    TMP DP  RH WIND       PRES   REMARKS
SAN ANGELO     CLEAR     56  39  53 NE8       30.31R
ABILENE        CLEAR     49  38  65 N8        30.35R
DYESS AFB      CLEAR     46  36  68 N6        30.34R
JUNCTION       MOCLDY    61  47  59 NE8       30.29R
SWEETWATER     CLEAR     48  35  59 N5        30.39R
BROWNWOOD      CLEAR     52  39  62 N3        30.31R
COLEMAN        SUNNY     51  40  65 N5        30.32R
SONORA         CLEAR     61  48  63 NE9       30.33R
OZONA          FAIR      61  41  48 NE8       30.33R
BRADY          CLEAR     52  46  82 N8        30.30R
$$

TEXAS PANHANDLE/OKLAHOMA PANHANDLE

CITY           SKY/WX    TMP DP  RH WIND       PRES   REMARKS
AMARILLO       CLEAR     36  30  79 N7        30.43R WCI  30
BORGER         CLEAR     41  30  65 NE7       30.44R WCI  36
CANADIAN       CLEAR     42  36  80 NE5       30.45R WCI  39
DALHART        CLEAR     38  28  67 N6        30.46R WCI  33
DUMAS            N/A     32  26  78 NW5       30.44R WCI  27
GUYMON         NOT AVBL
HEREFORD       SUNNY     37  32  81 N5        30.43R WCI  34
PAMPA          SUNNY     36  32  87 NE8       30.43S WCI  29
PERRYTON       CLEAR     37  32  84 N7        30.45R WCI  31
$$

SOUTHERN PANHANDLE/SOUTH PLAINS/ROLLING PLAINS

CITY           SKY/WX    TMP DP  RH WIND       PRES   REMARKS
LUBBOCK        CLEAR     40  31  70 NE8       30.38R WCI  34
SNYDER         CLEAR     50  34  53 NE10      30.37R
CHILDRESS      CLEAR     45  32  60 N8        30.41R
SEMINOLE       SUNNY     45  32  61 NE6       30.38R
$$

PERMIAN BASIN

CITY           SKY/WX    TMP DP  RH WIND       PRES   REMARKS
MIDLAND        CLEAR     47  36  65 N9        30.34R
ODESSA         CLEAR     48  35  60 N7        30.35R
WINK           PTCLDY    50  36  58 N6        30.34R
$$

FAR WEST/SOUTHWEST MOUNTAINS/TRANS PECOS

CITY           SKY/WX    TMP DP  RH WIND       PRES   REMARKS
ALPINE         CLOUDY    57  53  88 NE8       30.41S
DRYDEN           N/A     67  54  63 NE15      30.26R
EL PASO        PTCLDY    57  47  69 CALM      30.30R
FORT STOCKTON  CLOUDY    61  51  70 NE7       30.34R
GUADALUPE PASS CLEAR     50  31  48 NE36      30.38R
MARFA          MOCLDY    55  52  88 NE13      30.37R
PECOS          PTSUNNY   56  42  60 N6        30.34R
$$

DALLAS/FORT WORTH METROPLEX

CITY           SKY/WX    TMP DP  RH WIND       PRES   REMARKS
DFW AIRPORT    CLEAR     53  41  63 N10       30.27R
FTW MEACHAM    CLEAR     55  39  54 N13       30.28R
DAL-EXECUTIVE  CLEAR     53  41  63 N7        30.26R
GRAND PRAIRIE  CLEAR     57  43  58 MISG      30.29R
ADDISON        CLEAR     52  39  62 N12       30.27R
MESQUITE       SUNNY     54  43  66 NW9       30.26R
LANCASTER      SUNNY     55  38  54 N10       30.27R
$$

NORTH CENTRAL TEXAS

CITY           SKY/WX    TMP DP  RH WIND       PRES   REMARKS
SHRMAN/DENISON SUNNY     48  43  81 NW5       30.30R
GAINESVILLE    CLEAR     49  40  71 NW10      30.33R
BRIDGEPORT     SUNNY     51  41  68 N6        30.34R
DENTON         CLEAR     48  39  71 N9        30.29R
WAXAHACHIE     SUNNY     53  42  67 N12       30.26R
GRANBURY       SUNNY     52  44  75 NW6       30.30R
$$

WESTERN NORTH TEXAS

CITY           SKY/WX    TMP DP  RH WIND       PRES   REMARKS
WICHITA FALLS  CLEAR     50  37  61 N14       30.34R
VERNON         SUNNY     48  36  61 N6        30.38R
BRECKENRIDGE   SUNNY     50  37  60 N7        30.34R
COMANCHE       CLEAR     52  43  72 N7        30.30R
$$

CENTRAL AND SOUTH CENTRAL TEXAS

CITY           SKY/WX    TMP DP  RH WIND       PRES   REMARKS
AUSTIN/BERGSTM MOCLDY    59  55  87 N9        30.21R
WACO           CLEAR     54  44  69 N10       30.24R
HILLSBORO      SUNNY     53  41  64 N12       30.25R
TEMPLE         CLEAR     54  43  66 NW10      30.24R
KILLEEN-GRAY   CLEAR     53  47  82 N12       30.26R
FORT HOOD      NOT AVBL
GEORGETOWN     CLEAR     57  46  67 N8        30.24R
LAGO VISTA     FAIR      57  52  82 N9        30.24R
SAN MARCOS     CLEAR     61  54  77 N12       30.22R
NEW BRAUNFELS  CLOUDY    65  56  72 N9        30.19R
RANDOLPH AFB   CLOUDY    64  59  83 N7        30.21R
SAN ANTONIO    CLOUDY    65  60  84 N13       30.21R
STINSON        CLOUDY    65  62  90 N9        30.18R
PLEASANTON     NOT AVBL
LA GRANGE      MOCLDY    60  57  92 N5        30.17R
GIDDINGS       MOSUNNY   59  53  81 N7        30.23R
$$

EAST TEXAS

CITY           SKY/WX    TMP DP  RH WIND       PRES   REMARKS
PARIS          CLEAR     50  37  62 N12       30.24R
CLARKSVILLE    NOT AVBL
TYLER          CLEAR     53  43  68 N6        30.20R
LONGVIEW       CLEAR     50  44  80 NW7       30.17R
PALESTINE      SUNNY     50  47  88 NW6       30.20S
NACOGDOCHES    CLEAR     52  45  76 N7        30.17R
$$

TEXAS HILL COUNTRY AND EDWARDS PLATEAU

CITY           SKY/WX    TMP DP  RH WIND       PRES   REMARKS
LLANO          SUNNY     55  48  76 N6        30.30R
HORSESHOE BAY  FAIR      57  49  73 N3        30.26R
KERRVILLE      CLEAR     59  56  91 N5        30.27R
FREDERICKSBRG  CLEAR     57  53  87 N5        30.27R
ROCKSPRINGS    SUNNY     61  55  82 CALM      30.29R
HONDO          CLOUDY    62  62 100 N9        30.23R
UVALDE         CLOUDY    68  67  96 E9        30.21R
DEL RIO        MOCLDY    71  62  73 NE9       30.18R
$$

SOUTHEAST TEXAS

CITY           SKY/WX    TMP DP  RH WIND       PRES   REMARKS
COLLEGE STN    CLEAR     57  48  72 N9        30.19R
CALDWELL       SUNNY     57  50  77 NW9       30.23R
CROCKETT       SUNNY     50  48  93 CALM      30.21R
BRENHAM        CLEAR     59  53  81 N8        30.19R
HUNTSVILLE     CLEAR     53  49  86 NW3       30.18R
CONROE         CLEAR     52  48  86 N5        30.17R
HOUSTON BUSH   PTCLDY    60  53  77 NW7       30.15R
HOUSTON HOBBY  PTCLDY    63  54  72 NW6       30.13S
PERLAND        CLEAR     60  55  83 CALM      30.15R
WHARTON        SUNNY     62  59  88 N7        30.16R
$$

THE UPPER TEXAS COAST

CITY           SKY/WX    TMP DP  RH WIND       PRES   REMARKS
ORANGE         SUNNY    N/A N/A N/A CALM      30.13R
PORT ARTHUR    CLEAR     54  50  86 NW8       30.12R
GALVESTON      CLEAR     67  60  78 NW8       30.13R
ANGLETON       CLEAR     56  56 100 N5        30.14R
BAY CITY         N/A     63  62  96 N6        30.14R
$$

TEXAS COASTAL BEND, RIO GRANDE PLAINS DEEP SOUTH TEXAS

CITY           SKY/WX    TMP DP  RH WIND       PRES   REMARKS
VICTORIA       CLOUDY    67  62  84 N10       30.16R
BEEVILLE       TSTM      69  69 100 NE10      30.16R
ROCKPORT       CLOUDY    71  67  87 N9        30.12R
PORT ARANSAS   CLOUDY    73  69  87 NE13      30.10R
PORT LAVACA    PTSUNNY   65  63  90 N8        30.14R
CORPUS CHRISTI TSTM      68  67  96 N12       30.13R FOG
KINGSVILLE NAS LGT RAIN  70  70 100 CALM      30.10R FOG
COTULLA        RAIN      66  64  93 N5        30.20R
LAREDO         MOCLDY    68  68 100 NE21      30.19R
BROWNSVILLE    CLEAR     68  67  96 CALM      30.10R FOG
PORT ISABEL    CLEAR     70  68  93 NW3       30.09R FOG
HEBBRONVILLE   MOSUNNY   63  63  97 N14       30.17R FOG
MCALLEN        CLEAR     68  67  96 CALM      30.11R
WESLACO        CLEAR     66  64  92 CALM      30.10R FOG
FALFURRIAS     PTSUNNY   65  64  98 NW3       30.12R
EDINBURG       MOSUNNY   65  63  92 N3        30.12R FOG
$$



USA.gov is the U.S. government's official web portal to all federal, state and local government web resources and services.